カタログに戻る

DELTA 1 DEB

運用中UNKNOWN
NORAD 7048·DEBRIS·🇺🇸 United States

打ち上げ Nov 6, 1973 から Vandenberg Space Force Base

Loading…

次のパス (今後24時間)

TLE

最新Source: Space-Track

元期: Sep 14, 2026, 10:54 UTC

1 07048U 73086AQ  26257.45474691 -.00000024  00000-0  15167-3 0  9995
2 07048 101.6014  77.0876 0486482 210.2012 176.0246 11.50711453213885

AllMySatでDELTA 1 DEBをリアルタイム追跡

Download on the App Store